Miscellaneous Local Product
Issued by NWS North Platte, NE

Home | Current Version | Previous Version | Text Only | Print | Product List | Glossary On
Versions: 1 2 3 4 5 6 7 8 9 10 11 12 13 14 15 16 17 18 19 20 21 22 23 24 25 26 27 28 29 30 31 32 33 34 35 36 37 38 39 40 41 42 43 44 45 46 47 48 49 50
000
AXUS43 KLBF 270110
MISLBF


WESTERN AND NORTH CENTRAL NEBRASKA HOURLY WEATHER ROUNDUP
NATIONAL WEATHER SERVICE NORTH PLATTE NE
700 PM CST FRI DEC 26 2014

***STATIONS NOT REPORTING VARIABLES SUCH AS SKY/WEATHER OR
PRESSURE ARE PROVIDED BY THE NEBRASKA DEPARTMENT OF
ROADS...RAWS...AND APRS NETWORKS...AND ARE NOT UNDER
NATIONAL WEATHER SERVICE QUALITY CONTROL***

...OBSERVATIONS IN AND NEAR THE EASTERN PANHANDLE OF NEBRASKA...

CITY           SKY/WX    TMP DP  RH WIND       PRES   REMARKS
PINE RIDGE     CLOUDY    18  12  77 NW3       30.10R
CHADRON        CLOUDY    19  14  81 E3        30.11R
ALLIANCE       CLOUDY    17  14  88 N7        30.05R WCI   8
SIDNEY         LGT SNOW  16  12  84 N6        30.04R FOG     WCI   7
WHITECLAY        N/A     17  11  80 NW5         N/A  WCI  10
CRESCENT LAKE    N/A     16  12  85 N12         N/A  WCI   3
LISCO            N/A     21  15  75 W6          N/A  WCI  14
BIG SPRINGS      N/A     20  18  90 N5          N/A  WCI  14
$$

...OBSERVATIONS IN NORTH CENTRAL NEBRASKA...

CITY           SKY/WX    TMP DP  RH WIND       PRES   REMARKS
VALENTINE      LGT SNOW  20  16  84 N9        30.11R VSB 3/4 WCI   9
THEDFORD       LGT SNOW  20  18  91 N8        30.07R WCI  11
AINSWORTH      LGT SNOW  19  17  91 N9        30.08F WCI   8
O`NEILL        LGT SNOW  22  22  96 N9        30.08R WCI  12
ORD            LGT SNOW  22  18  85 N14       30.07R VSB 1   WCI   9
BROKEN BOW     LGT SNOW  22  18  85 N16       30.04R FOG     WCI   8
BROWNLEE         N/A     18  16  93 S12         N/A  WCI   5
SPRINGVIEW       N/A     19  17  90 N3          N/A
BREWSTER         N/A     23  21  93 N12         N/A  WCI  12
ROSE             N/A     26  25  96 N7          N/A  WCI  18
SARGENT          N/A     21  19  91 NW3         N/A
COMSTOCK         N/A     27  25  92 N13         N/A  WCI  17
CHAMBERS         N/A     21  18  88 NE8G15      N/A  WCI  11
EWING            N/A     22  20  92 CALM        N/A
$$

...OBSERVATIONS IN SOUTHWEST NEBRASKA AND FAR NORTHEAST COLORADO...

CITY           SKY/WX    TMP DP  RH WIND       PRES   REMARKS
WRAY           LGT SNOW  20  17  91 NW7       30.05R WCI  11
HOLYOKE        FLURRIES  21  19  93 N13       30.05R WCI   9
IMPERIAL       LGT SNOW  20  16  84 N14       30.06R FOG     WCI   7
OGALLALA       LGT SNOW  20  17  87 N10       30.07R WCI   9
NORTH PLATTE   FLURRIES  20  16  84 N8        30.06R WCI  10
MCCOOK         LGT SNOW  23  19  85 N13       30.07R FOG     WCI  11
LEXINGTON      LGT SNOW  23  20  89 N12       30.04R WCI  12
PAXTON           N/A     21  19  93 NW3         N/A
BRADY            N/A     19  15  84 CALM        N/A
GOTHENBURG       N/A     20  16  85 N8          N/A  WCI  10
CALLAWAY         N/A     19  17  93 N12         N/A  WCI   7
$$

...NORTH PLATTE AREA...

CITY           SKY/WX    TMP DP  RH WIND       PRES   REMARKS
AIRPORT        FLURRIES  20  16  84 N8        30.06R WCI  10
$$

...SOME WEATHER OBSERVATIONS FROM AROUND THE REGION...

CITY           SKY/WX    TMP DP  RH WIND       PRES   REMARKS
DENVER         LGT SNOW  15  12  88 N7        29.99R FOG     WCI   5
LARAMIE        LGT SNOW   7   4  87 NW7       29.88R FOG     WCI  -5
CHEYENNE       LGT SNOW  13   8  81 N7        29.94R WCI   3
SCOTTSBLUFF    LGT SNOW  19  16  88 NW3       30.07R FOG
RAPID CITY     CLOUDY    18  13  80 CALM      30.11R
PIERRE         CLOUDY    16  10  77 NE9       30.17R WCI   4
WINNER         FLURRIES  21  16  81 N13       30.14R WCI   9
SIOUX FALLS    LGT SNOW  23  20  88 N13       30.09S FOG     WCI  11
OMAHA          FRZ DRZL  32  31  96 N10       30.04R FOG     WCI  24
GRAND ISLAND   LGT SNOW  23  21  92 N15       30.05R FOG     WCI  10
KANSAS CITY    DRIZZLE   39  34  82 NW6       29.96R WCI  35
WICHITA        CLOUDY    35  31  85 NW10      30.00R WCI  27
HAYS           CLOUDY    27  18  69 N7        30.04R WCI  19
LIBERAL        MOCLDY    27  19  74 N8        30.07R WCI  18
GOODLAND       LGT SNOW  19  17  92 N10       30.04R FOG     WCI   7
$$



USA.gov is the U.S. government's official web portal to all federal, state and local government web resources and services.